Temperature
21 21 21 21 24 24 23 23 24 23 23 23 22 22 23 22 22 21 18 17 17 17 17 17 17 17 17 17 17 17 17 17 17 18 18 18 18 18 18 18 18 18 18 18 18 18 18 18 18
20 21 21 23 24 24 23 23 24 23 23 22 22 22 22 21 20 19 17 17 17 17 16 16 17 17 17 17 17 17 17 17 17 17 17 18 18 18 18 18 18 18 18 18 18 18 18 18 18
21 21 22 24 24 24 23 24 24 23 22 22 22 22 21 20 19 18 17 17 17 17 16 16 17 17 17 17 17 17 17 17 17 17 17 17 18 18 18 18 18 18 18 17 17 17 18 17 17
20 21 23 25 24 24 24 24 24 23 22 22 22 22 20 19 18 18 17 17 17 17 16 16 17 17 17 17 17 17 17 17 17 17 17 17 17 17 17 17 17 17 17 17 17 17 17 17 17
21 23 24 24 24 24 24 24 24 24 23 22 22 22 20 18 18 18 17 17 17 17 16 16 17 17 17 17 17 17 17 17 17 17 17 17 17 17 17 17 17 17 17 17 17 17 17 17 17
22 24 24 23 23 24 24 24 24 24 23 22 22 22 20 18 18 17 17 17 17 17 16 16 17 17 17 17 17 17 17 17 17 17 17 17 17 17 17 17 17 17 17 17 17 17 17 17 17
23 24 24 24 23 23 24 23 24 24 23 22 22 22 20 18 18 17 17 17 17 17 16 16 16 16 17 17 17 17 17 17 17 17 17 17 17 17 17 17 17 17 17 17 17 17 17 17 17
22 24 24 24 23 23 24 23 23 23 23 21 22 22 21 19 18 17 17 17 17 17 17 16 16 16 16 16 17 17 17 17 17 17 17 17 17 17 17 17 17 17 17 17 17 17 17 17 17
22 24 24 24 23 24 24 23 23 22 22 21 21 21 20 18 18 17 17 17 17 17 17 17 17 16 16 16 16 16 16 16 16 16 17 16 16 16 16 16 17 17 17 17 17 16 16 16 16
23 24 24 24 24 24 24 23 23 22 22 22 21 20 19 18 18 18 18 18 18 17 17 17 17 17 16 16 16 16 16 16 16 16 16 16 16 16 16 16 16 16 16 16 16 16 16 16 16
24 24 24 24 23 23 23 23 23 23 23 22 22 20 19 19 19 19 19 18 18 18 17 17 17 17 17 16 16 16 16 16 16 16 16 16 16 16 16 16 16 16 16 16 16 16 16 16 16
24 24 23 23 22 23 23 23 23 23 23 22 22 21 19 19 19 19 19 18 18 17 17 17 17 17 17 16 16 16 16 16 16 16 16 16 16 16 16 16 16 16 16 15 15 16 16 16 16
24 24 23 22 22 22 22 23 23 22 22 21 21 20 20 20 19 19 19 18 18 17 17 17 17 17 17 16 16 16 16 16 16 16 16 16 16 16 16 16 16 15 15 15 15 15 15 15 15
23 23 23 23 23 22 23 23 22 22 21 21 21 20 20 20 19 19 19 19 18 18 18 17 17 17 17 16 16 16 16 16 16 16 16 16 16 15 15 15 15 15 15 15 15 15 15 15 15
23 23 23 23 23 23 23 23 23 21 21 21 21 20 20 19 19 19 19 19 19 18 18 17 17 17 17 16 16 16 16 16 16 16 16 15 15 15 15 15 15 15 15 15 15 15 15 15 15
24 24 23 23 23 23 23 23 23 21 21 21 21 21 20 19 19 19 19 19 18 18 18 17 17 17 17 16 16 16 16 16 15 15 15 15 15 15 15 15 15 15 15 15 15 15 15 15 15
23 23 23 23 23 23 23 23 23 21 21 21 21 21 20 19 19 19 19 19 18 18 18 17 17 17 17 16 16 16 16 16 15 15 15 15 15 15 15 15 15 14 14 14 14 14 15 14 14
23 23 23 23 23 23 23 23 23 21 21 21 21 21 20 20 19 19 19 18 18 18 18 18 17 17 17 16 16 16 16 16 15 15 15 15 15 15 15 15 14 14 14 14 14 14 14 14 14
23 23 23 23 23 23 23 23 23 21 21 21 21 21 20 20 19 19 18 18 18 18 18 18 17 17 17 16 16 16 16 16 15 15 15 15 15 15 15 14 14 14 14 14 14 14 14 14 14
23 23 23 23 23 23 23 22 22 22 21 20 20 20 20 20 19 19 18 18 18 18 18 18 17 17 17 16 16 16 16 16 15 15 15 15 15 15 15 14 14 14 14 14 14 14 14 14 14
23 23 23 23 22 23 22 22 22 22 21 20 20 20 20 19 19 19 18 18 18 18 18 17 17 17 17 16 16 16 16 16 15 15 15 15 15 15 14 14 14 14 14 14 14 14 14 14 14
23 23 23 22 23 23 23 22 23 22 21 21 20 20 19 19 19 18 18 18 18 18 17 17 17 17 17 16 16 16 16 16 15 15 15 15 15 15 14 14 14 14 14 14 14 14 13 14 13
23 22 23 23 23 23 23 23 23 22 22 21 20 19 19 19 18 18 18 17 17 17 17 17 17 17 17 16 16 16 16 15 15 15 15 15 15 15 14 14 14 14 14 14 14 13 13 13 13
22 22 22 23 23 22 22 22 22 22 22 21 20 19 19 18 18 17 17 17 17 17 17 17 17 17 17 16 16 16 16 15 15 15 15 15 15 15 14 14 14 14 14 14 13 13 13 13 13
23 23 22 22 22 22 22 22 22 22 21 20 20 19 18 18 17 17 17 17 17 17 17 17 17 17 16 16 16 16 16 15 15 15 15 15 15 15 14 14 14 14 14 14 13 13 13 13 13
23 23 22 21 22 22 22 22 22 21 20 19 18 18 17 17 17 16 16 16 16 16 16 16 16 16 16 16 16 16 15 15 15 15 15 15 15 14 14 14 14 14 14 13 13 13 13 13 13
22 23 23 22 22 22 22 22 21 20 20 19 18 18 17 17 16 16 16 16 16 16 16 16 16 16 16 16 15 15 15 15 15 15 15 15 14 14 14 14 14 14 13 13 13 13 13 13 13
22 23 22 22 21 21 22 22 22 21 20 20 19 18 17 16 16 15 15 15 15 16 16 16 15 15 16 15 15 15 15 15 15 15 14 14 14 14 14 14 14 14 13 13 13 13 13 13 13
21 21 22 22 22 21 21 22 22 21 20 20 19 18 17 16 16 15 15 15 15 15 15 15 15 15 15 15 15 15 15 15 14 14 14 14 14 14 14 14 14 13 13 13 13 13 13 13 13
22 22 22 21 21 21 21 22 21 20 20 19 19 18 17 16 15 15 15 15 15 15 15 15 15 14 14 15 14 14 14 14 14 14 14 14 14 14 14 13 13 13 13 13 13 13 13 13 13
Wind_Speed
3 1 1 2 2 4 7 6 5 5 5 6 6 5 6 6 5 5 4 3 4 4 4 5 5 5 5 6 6 6 6 7 7 7 8 8 9 9 9 9 10 11 11 11 10 10 10 10 11
1 1 1 1 1 6 7 5 6 6 6 5 5 5 6 7 6 6 5 4 4 5 5 6 6 6 6 6 6 6 7 8 8 8 8 9 9 9 9 10 10 10 11 11 10 10 10 10 10
1 1 1 1 4 5 7 5 7 7 6 3 4 5 5 5 5 4 5 6 5 6 6 8 6 6 6 6 5 6 7 8 8 8 9 9 9 9 10 10 10 10 10 11 11 11 10 10 11
2 1 1 3 8 7 6 6 6 7 5 3 4 6 5 5 4 6 7 6 6 6 7 8 6 7 6 6 5 5 6 7 8 8 9 9 9 10 10 10 10 10 11 11 11 11 10 10 10
1 1 4 6 8 6 5 5 6 6 5 5 5 6 7 6 7 8 8 7 7 7 7 8 7 7 7 8 7 6 6 8 8 8 9 9 9 10 10 10 10 10 11 11 11 11 11 11 10
1 1 4 6 7 6 5 6 6 6 6 5 5 7 6 7 7 8 7 6 6 6 6 7 8 7 8 9 9 9 9 9 9 9 9 9 10 10 10 10 10 10 10 10 11 11 11 11 10
1 2 5 7 6 6 5 5 4 5 5 4 4 5 7 8 7 7 7 6 6 6 6 5 6 7 7 9 10 11 11 11 10 10 9 10 10 10 10 10 10 10 10 10 11 11 11 11 10
0 3 6 5 5 5 5 5 3 3 4 4 3 3 6 9 8 8 7 6 6 6 5 5 5 5 6 9 11 11 11 11 11 10 9 9 9 9 9 10 11 10 10 10 10 10 11 11 11
1 3 4 4 4 4 5 5 5 3 5 5 3 4 7 11 10 8 7 6 5 5 4 4 5 6 6 7 8 9 9 9 8 9 8 5 6 7 8 11 11 10 10 11 11 11 10 10 11
1 2 4 3 3 4 5 4 5 6 6 6 6 7 9 11 10 8 7 6 5 5 4 4 4 5 6 6 6 6 6 6 6 6 6 6 6 6 7 11 10 10 10 10 10 9 7 5 7
2 2 3 3 3 3 4 4 4 5 4 5 7 10 11 10 9 7 6 5 5 5 4 4 4 4 5 4 5 5 5 5 5 5 6 5 5 5 6 6 7 7 7 7 7 6 6 7 6
2 2 2 3 3 4 4 4 4 3 2 4 6 10 11 10 9 7 6 5 5 4 4 4 3 4 4 5 4 4 4 4 4 4 5 5 4 4 5 4 5 5 5 5 5 5 7 7 7
3 2 2 3 3 4 4 4 3 3 2 5 7 10 10 9 8 7 6 6 5 5 4 4 3 3 4 4 3 3 3 3 4 4 4 5 4 4 4 4 4 5 5 5 4 5 6 6 7
2 2 2 3 4 4 4 3 3 2 4 7 8 8 9 9 8 7 6 6 5 5 5 5 4 4 4 4 3 3 3 3 4 4 4 4 4 4 4 4 4 4 5 4 5 6 5 5 6
3 3 3 3 3 2 3 3 3 2 5 7 7 7 7 8 7 7 6 6 5 5 5 5 4 4 4 4 4 3 3 3 3 3 4 4 4 4 4 4 4 4 4 5 5 6 5 5 5
4 4 3 2 2 2 4 2 2 3 6 7 6 7 7 7 7 7 6 5 5 5 5 5 4 4 4 3 3 3 3 3 3 3 3 3 3 3 3 3 3 4 4 4 4 4 4 4 4
4 4 3 2 2 2 4 2 2 2 5 6 7 7 8 8 7 7 6 6 6 6 6 6 5 5 4 3 3 2 2 2 2 3 2 2 3 3 3 2 3 4 3 3 3 3 3 4 4
3 3 3 2 1 3 3 2 1 3 4 5 6 7 8 8 8 7 6 6 6 6 6 6 6 5 5 3 3 3 2 2 2 2 2 1 2 2 3 2 3 3 3 3 3 4 3 3 3
3 4 3 1 1 3 4 3 2 2 4 4 5 6 7 7 7 6 6 6 6 7 7 7 7 6 5 4 3 3 2 2 2 2 2 2 2 2 2 2 3 3 3 3 3 3 4 3 2
5 5 4 2 1 3 2 3 2 1 3 4 5 6 6 6 6 6 6 6 6 7 7 7 7 7 6 5 4 3 3 2 2 2 2 3 2 3 3 3 3 3 3 4 4 3 2 2 1
6 5 4 3 2 4 4 3 2 2 3 3 4 5 5 5 6 7 7 7 6 7 7 7 8 7 7 6 4 3 3 3 3 3 3 3 3 3 4 3 3 3 4 4 4 4 4 3 2
5 3 4 4 5 4 5 5 2 3 3 3 3 4 5 5 5 5 6 6 6 7 7 7 7 7 7 6 6 6 5 4 4 3 3 3 4 4 5 4 4 4 4 4 5 4 4 4 3
3 1 4 5 6 6 6 6 2 2 3 3 2 3 4 5 5 5 5 6 6 5 5 6 7 7 7 7 7 6 6 4 3 3 4 4 4 4 5 5 5 4 4 5 5 4 5 4 3
3 3 3 5 6 7 5 6 3 2 2 1 0 1 2 3 3 4 4 4 4 4 4 5 6 7 7 8 8 8 7 5 5 5 4 4 3 4 5 5 5 5 4 5 5 5 6 5 4
6 6 4 5 5 4 2 4 3 1 1 1 1 1 1 1 2 2 2 3 3 3 4 5 6 6 7 8 8 8 7 6 6 5 5 4 4 4 5 6 6 5 5 5 5 5 5 6 5
7 8 5 4 4 2 3 5 1 2 0 1 1 1 0 1 1 1 2 2 2 3 4 5 6 6 6 7 7 6 6 5 5 5 4 4 4 4 4 5 6 6 6 6 5 5 6 6 6
6 7 4 5 5 6 4 3 2 3 1 1 1 1 1 1 1 1 1 1 2 2 3 4 5 5 6 6 6 6 6 5 5 5 4 4 3 3 4 5 5 5 6 6 6 5 6 6 6
4 4 4 5 5 6 5 6 3 3 2 2 2 1 1 1 1 1 1 1 1 2 2 3 3 4 5 5 5 4 5 5 4 4 4 4 4 4 4 5 5 6 6 6 6 6 6 6 6
5 6 5 6 6 6 5 2 1 1 1 2 1 1 1 1 1 1 1 0 1 1 2 2 3 3 3 5 5 5 4 4 4 4 4 3 4 4 5 5 5 5 6 6 6 6 6 7 7
7 8 8 8 7 7 7 3 3 1 1 1 1 1 1 1 1 1 1 0 0 1 1 2 2 3 3 3 4 5 4 5 4 4 4 3 3 4 4 4 5 5 5 6 6 7 7 7 7
Wind_Direction
173 176 231 241 185 106 89 88 91 96 79 68 68 69 64 48 35 67 87 89 82 87 86 95 76 67 66 69 72 73 78 83 85 87 87 89 91 91 89 89 88 88 87 87 89 90 88 86 85
164 196 228 250 139 111 97 98 95 85 98 101 77 70 70 68 60 87 102 97 95 88 84 76 71 68 68 69 69 73 77 82 83 85 88 89 91 92 92 90 88 88 89 90 90 90 87 86 86
154 252 289 117 92 92 105 108 102 103 109 105 85 63 56 71 78 93 100 112 100 90 84 81 67 68 66 67 70 73 81 82 83 85 88 87 88 91 92 90 91 90 89 90 89 88 86 86 86
214 200 179 113 98 85 100 118 124 127 112 89 101 91 81 70 81 100 111 111 100 94 88 84 71 67 62 60 68 80 88 87 85 87 89 89 88 89 89 89 90 91 90 88 87 86 85 85 87
213 176 127 111 99 100 110 123 137 124 111 102 98 97 96 91 99 111 116 109 98 92 86 87 75 64 58 54 64 84 95 90 86 88 89 88 86 88 88 87 86 89 88 88 88 87 85 84 84
169 167 133 116 108 109 122 136 141 117 110 115 110 104 100 117 121 119 118 107 97 91 85 88 91 69 59 58 66 82 90 89 87 87 90 88 86 86 85 86 86 88 88 88 90 90 89 85 83
126 130 122 121 123 120 123 147 148 125 120 118 123 111 119 133 131 129 122 111 99 90 84 80 89 97 88 71 69 75 82 85 82 83 87 87 86 85 83 84 85 88 89 89 91 91 89 85 82
61 143 132 131 135 122 131 143 135 128 110 115 147 117 131 144 142 138 127 118 106 96 88 83 82 81 90 94 82 79 80 80 81 79 82 87 94 93 90 87 82 85 88 91 92 93 90 86 82
214 151 135 136 140 127 144 145 129 129 127 127 119 98 117 137 145 144 137 130 116 102 95 90 89 87 86 88 94 96 93 88 98 94 92 99 89 88 92 78 81 82 88 91 93 95 96 98 93
182 137 117 111 124 125 140 149 146 151 142 139 135 125 131 146 153 151 146 137 129 117 105 97 94 94 92 90 94 89 87 87 86 87 87 85 83 81 84 91 85 83 93 99 97 103 116 113 99
138 113 113 114 115 122 136 142 156 160 147 157 156 151 153 157 159 155 145 134 124 119 113 107 103 101 99 99 93 87 84 84 84 82 85 85 88 93 88 94 100 93 97 95 107 111 89 86 83
137 105 114 121 127 143 144 142 147 174 128 122 147 149 157 164 163 158 148 137 131 125 118 114 114 114 105 102 97 94 90 85 83 80 77 80 80 81 84 85 84 85 84 82 83 85 88 85 85
148 120 109 126 134 149 156 160 158 172 157 135 141 152 162 164 162 158 152 145 139 135 134 124 123 118 113 104 101 102 92 86 89 84 82 84 83 86 90 89 85 83 87 90 88 87 86 85 82
135 141 138 148 148 156 159 154 163 145 158 153 156 162 167 167 168 162 163 161 151 146 138 132 132 128 126 121 121 109 99 95 87 85 84 86 89 88 90 91 88 83 85 89 96 97 96 88 84
155 161 165 157 161 155 175 177 179 146 163 165 169 168 167 172 175 176 172 173 163 154 146 136 139 141 132 120 114 110 110 103 94 89 87 90 90 94 92 92 93 90 93 97 95 99 99 96 95
191 202 193 157 177 190 224 209 128 165 179 180 178 173 172 178 185 184 181 179 174 170 157 145 154 157 139 130 128 121 116 106 101 103 97 98 102 101 94 97 100 101 99 99 102 106 104 101 94
208 214 201 168 163 209 223 241 126 173 191 192 187 184 182 182 192 190 187 185 182 179 170 162 160 161 151 141 137 132 126 121 113 111 108 107 112 120 116 110 118 118 115 108 110 106 103 100 91
208 226 227 223 174 219 219 240 206 189 205 205 194 193 191 191 194 193 189 190 189 187 182 172 170 175 161 160 156 139 140 144 134 131 137 132 138 137 134 141 146 137 135 126 121 112 108 105 102
223 243 255 267 221 232 232 256 278 207 208 213 203 196 197 198 192 187 190 193 194 194 194 184 186 184 179 178 183 178 171 172 164 165 166 175 179 167 156 161 158 160 155 151 145 131 129 125 118
222 235 241 221 174 243 236 261 278 219 206 215 216 199 195 198 193 188 195 196 203 200 202 198 197 194 193 194 195 195 188 200 185 184 188 192 194 185 184 184 179 178 170 172 164 158 159 151 176
224 242 249 249 235 217 236 247 220 174 185 206 226 218 201 201 202 194 196 199 202 208 207 207 204 198 197 195 195 190 189 203 196 199 201 203 201 199 202 203 200 192 194 187 184 182 187 190 200
233 243 245 234 238 239 244 271 247 191 187 202 215 218 214 210 211 203 202 202 207 212 212 214 208 204 196 193 200 208 217 221 224 215 206 207 206 206 209 210 211 209 209 201 202 199 201 203 204
247 227 232 241 251 254 245 259 239 179 208 200 210 224 226 220 217 209 210 212 211 208 208 215 210 207 201 202 202 219 231 235 229 219 209 213 208 209 208 215 217 219 217 215 213 208 211 214 223
173 189 198 223 243 247 244 249 251 193 229 237 227 242 234 219 217 216 211 210 207 198 197 204 209 208 205 206 206 217 228 227 222 220 216 216 211 209 208 214 220 221 222 217 214 213 215 226 230
214 235 233 225 226 237 182 242 244 98 60 301 302 311 248 188 191 202 205 203 202 199 198 200 203 208 206 208 212 216 223 224 223 223 219 220 219 217 213 213 220 218 217 218 216 220 222 223 229
217 237 251 260 256 251 212 235 179 112 77 333 309 310 188 170 178 186 185 191 200 197 202 202 204 208 206 208 212 215 216 219 221 221 223 224 227 225 220 219 220 219 220 220 219 226 227 228 229
215 225 263 274 276 267 233 218 202 175 202 203 176 148 149 156 160 156 151 168 191 192 194 201 205 205 204 208 211 213 212 211 217 222 224 226 225 220 217 220 219 218 219 219 217 223 226 228 232
253 207 212 241 257 259 251 245 236 195 200 194 196 180 153 162 156 144 154 185 200 203 193 196 206 211 206 205 206 210 212 210 215 218 221 219 220 215 215 220 218 216 215 216 217 224 229 228 227
194 204 226 242 253 265 268 255 80 197 212 213 199 179 187 192 189 185 184 189 184 189 186 197 206 211 214 207 203 200 204 208 208 211 219 223 220 214 216 217 220 218 216 214 210 219 222 226 227
232 228 226 242 242 249 271 268 108 166 235 244 242 221 214 202 191 183 163 128 136 178 194 203 214 214 216 214 205 204 201 203 206 209 216 218 219 213 217 217 219 216 215 216 218 220 220 223 227
Height
1512 1511 1511 1513 1511 1511 1517 1517 1514 1516 1517 1520 1520 1520 1520 1522 1524 1531 1533 1530 1530 1530 1529 1528 1527 1527 1527 1527 1527 1527 1527 1527 1526 1527 1527 1527 1527 1527 1527 1527 1527 1527 1527 1527 1527 1528 1528 1528 1528
1513 1512 1514 1513 1509 1516 1521 1517 1516 1518 1521 1522 1522 1523 1523 1526 1529 1531 1531 1531 1531 1531 1530 1529 1528 1528 1528 1528 1527 1527 1527 1527 1528 1528 1528 1528 1528 1528 1528 1528 1529 1529 1529 1529 1529 1529 1529 1530 1530
1513 1513 1515 1511 1512 1516 1520 1517 1517 1521 1523 1523 1524 1525 1526 1529 1531 1532 1532 1532 1532 1532 1531 1530 1529 1529 1529 1528 1528 1528 1528 1529 1529 1529 1529 1529 1530 1530 1530 1530 1530 1530 1530 1530 1531 1531 1531 1531 1531
1514 1515 1515 1512 1516 1516 1516 1517 1519 1521 1523 1524 1524 1526 1529 1532 1532 1533 1533 1533 1534 1533 1533 1532 1531 1530 1529 1528 1527 1527 1528 1529 1530 1530 1531 1531 1531 1531 1531 1532 1532 1532 1532 1532 1532 1532 1533 1533 1533
1515 1515 1513 1515 1517 1517 1517 1518 1520 1520 1522 1525 1525 1527 1531 1533 1533 1534 1534 1535 1535 1535 1534 1533 1532 1531 1530 1528 1525 1525 1527 1530 1531 1532 1532 1533 1533 1533 1533 1533 1533 1533 1534 1534 1534 1534 1534 1534 1535
1516 1513 1515 1519 1519 1518 1518 1520 1521 1521 1523 1526 1527 1528 1532 1534 1534 1535 1535 1536 1536 1536 1536 1535 1533 1532 1531 1529 1527 1525 1528 1531 1532 1533 1534 1534 1534 1535 1535 1535 1535 1535 1535 1535 1535 1535 1536 1536 1536
1516 1513 1515 1517 1520 1519 1519 1521 1521 1522 1524 1526 1528 1528 1532 1534 1535 1536 1536 1537 1537 1537 1537 1536 1536 1535 1533 1532 1531 1530 1531 1533 1534 1535 1535 1536 1536 1536 1536 1536 1536 1536 1536 1536 1536 1537 1537 1537 1538
1517 1515 1517 1517 1520 1520 1520 1522 1523 1524 1525 1528 1529 1528 1532 1535 1535 1536 1537 1538 1538 1538 1538 1538 1538 1537 1537 1536 1534 1534 1535 1535 1536 1536 1537 1537 1538 1538 1538 1538 1538 1538 1538 1538 1538 1538 1538 1539 1539
1517 1516 1518 1518 1519 1519 1520 1522 1524 1526 1527 1528 1529 1530 1532 1534 1535 1537 1538 1539 1539 1539 1539 1539 1539 1539 1538 1538 1537 1537 1537 1538 1538 1538 1538 1539 1540 1540 1540 1539 1539 1539 1539 1539 1539 1540 1540 1541 1541
1517 1516 1517 1517 1517 1518 1520 1522 1524 1525 1526 1528 1530 1532 1533 1534 1536 1537 1538 1539 1540 1540 1541 1540 1540 1540 1540 1540 1540 1540 1540 1540 1540 1541 1541 1541 1541 1541 1541 1541 1541 1541 1540 1540 1541 1541 1542 1543 1544
1516 1516 1516 1518 1519 1520 1521 1522 1524 1524 1525 1527 1529 1531 1533 1535 1536 1537 1538 1539 1540 1541 1541 1541 1541 1541 1541 1541 1541 1541 1541 1541 1542 1542 1542 1542 1542 1543 1543 1543 1542 1542 1542 1542 1542 1543 1544 1544 1544
1516 1517 1518 1519 1521 1521 1522 1523 1524 1524 1526 1527 1529 1531 1533 1534 1536 1538 1539 1540 1541 1541 1542 1542 1542 1542 1543 1543 1542 1543 1543 1543 1543 1543 1544 1544 1544 1544 1544 1544 1543 1543 1543 1543 1544 1544 1545 1545 1546
1517 1518 1520 1520 1521 1522 1522 1523 1524 1525 1527 1528 1529 1531 1533 1534 1536 1538 1539 1540 1541 1542 1542 1543 1543 1543 1543 1543 1543 1544 1544 1544 1544 1544 1545 1545 1545 1545 1545 1545 1544 1545 1545 1545 1545 1545 1546 1547 1547
1518 1519 1520 1520 1521 1522 1522 1523 1524 1525 1527 1528 1529 1531 1533 1534 1536 1538 1539 1540 1541 1542 1543 1543 1543 1544 1544 1544 1544 1545 1545 1545 1545 1545 1546 1546 1546 1546 1546 1546 1546 1546 1546 1546 1546 1547 1547 1547 1548
1519 1518 1519 1520 1520 1521 1522 1522 1523 1526 1527 1527 1529 1530 1532 1534 1536 1537 1539 1540 1541 1542 1543 1543 1544 1544 1545 1545 1545 1545 1545 1546 1546 1546 1547 1547 1547 1547 1547 1547 1547 1547 1547 1547 1548 1548 1548 1549 1549
1517 1517 1519 1519 1520 1521 1522 1523 1523 1525 1526 1526 1528 1530 1532 1534 1535 1537 1538 1540 1541 1542 1543 1543 1544 1545 1545 1545 1545 1546 1546 1546 1546 1546 1547 1547 1547 1548 1547 1547 1548 1547 1548 1548 1548 1549 1549 1550 1551
1516 1518 1519 1519 1519 1519 1519 1521 1522 1524 1525 1525 1527 1528 1530 1532 1535 1536 1537 1539 1540 1541 1543 1543 1544 1545 1545 1545 1546 1546 1546 1546 1546 1547 1547 1547 1548 1548 1548 1548 1548 1548 1548 1549 1549 1550 1550 1551 1551
1519 1517 1518 1518 1518 1519 1519 1519 1521 1523 1524 1524 1525 1527 1529 1530 1533 1535 1536 1538 1539 1540 1542 1543 1544 1544 1545 1545 1546 1546 1546 1546 1546 1547 1547 1547 1548 1548 1548 1548 1548 1549 1549 1549 1550 1549 1550 1550 1551
1515 1517 1518 1517 1517 1518 1518 1518 1519 1521 1523 1523 1524 1525 1527 1529 1531 1533 1535 1536 1538 1539 1541 1542 1543 1544 1544 1545 1545 1545 1546 1546 1546 1546 1547 1547 1547 1547 1548 1548 1548 1548 1549 1549 1550 1550 1550 1551 1551
1515 1516 1516 1516 1517 1518 1517 1518 1517 1519 1521 1522 1523 1523 1525 1527 1529 1531 1533 1534 1536 1537 1539 1540 1541 1542 1543 1543 1544 1545 1545 1546 1546 1545 1546 1546 1546 1547 1547 1548 1548 1548 1548 1549 1549 1550 1550 1551 1551
1514 1515 1515 1517 1517 1516 1517 1517 1515 1517 1520 1521 1522 1523 1524 1525 1527 1528 1530 1532 1533 1535 1537 1538 1540 1541 1541 1542 1543 1543 1544 1544 1545 1545 1545 1545 1545 1546 1546 1547 1547 1547 1548 1548 1548 1549 1549 1550 1551
1514 1513 1514 1516 1517 1516 1517 1520 1513 1512 1516 1519 1520 1521 1522 1523 1525 1527 1528 1529 1530 1532 1534 1536 1537 1539 1539 1540 1541 1542 1542 1543 1543 1544 1543 1544 1544 1544 1545 1545 1546 1546 1547 1547 1548 1548 1549 1549 1550
1512 1513 1513 1514 1513 1515 1513 1516 1512 1511 1514 1515 1518 1519 1520 1522 1523 1524 1526 1527 1528 1530 1531 1533 1534 1536 1537 1538 1539 1540 1541 1541 1542 1542 1542 1543 1543 1543 1543 1544 1544 1545 1545 1546 1546 1547 1548 1548 1549
1513 1514 1513 1512 1512 1520 1514 1516 1515 1509 1512 1513 1516 1518 1519 1520 1521 1522 1523 1524 1526 1527 1528 1529 1531 1533 1534 1535 1536 1537 1538 1539 1539 1540 1540 1541 1541 1541 1542 1542 1542 1543 1543 1544 1545 1545 1546 1547 1547
1512 1514 1519 1520 1521 1517 1512 1515 1513 1509 1512 1514 1516 1517 1518 1519 1520 1520 1521 1522 1523 1524 1525 1526 1528 1529 1530 1532 1533 1534 1535 1536 1537 1537 1538 1538 1539 1539 1540 1540 1540 1541 1541 1542 1542 1543 1544 1545 1545
1509 1510 1519 1525 1521 1513 1513 1514 1509 1511 1513 1515 1516 1517 1517 1518 1518 1519 1519 1520 1521 1522 1523 1524 1525 1526 1527 1529 1530 1531 1533 1533 1534 1535 1535 1536 1537 1537 1538 1538 1538 1538 1539 1539 1540 1541 1542 1542 1543
1509 1508 1508 1512 1513 1516 1509 1508 1508 1510 1512 1514 1515 1516 1516 1517 1517 1517 1518 1518 1519 1520 1521 1521 1523 1524 1525 1526 1528 1529 1530 1530 1531 1532 1533 1533 1534 1534 1535 1535 1536 1536 1536 1537 1538 1538 1539 1540 1540
1507 1507 1511 1514 1520 1520 1511 1508 1506 1507 1509 1511 1513 1514 1515 1515 1516 1516 1517 1517 1518 1518 1519 1520 1521 1522 1523 1524 1525 1526 1527 1527 1528 1529 1530 1530 1531 1532 1532 1533 1533 1534 1534 1534 1535 1535 1536 1537 1537
1510 1511 1509 1509 1511 1516 1516 1509 1501 1504 1507 1509 1511 1513 1514 1515 1515 1515 1515 1516 1516 1516 1517 1517 1518 1519 1520 1521 1522 1522 1524 1524 1525 1526 1527 1527 1528 1529 1529 1530 1530 1531 1531 1531 1532 1532 1533 1534 1535
1505 1504 1507 1512 1510 1510 1512 1509 1502 1505 1507 1509 1510 1512 1513 1514 1514 1514 1514 1514 1514 1514 1515 1515 1516 1516 1517 1518 1519 1520 1521 1521 1522 1523 1524 1524 1525 1525 1526 1527 1527 1528 1528 1528 1529 1529 1530 1531 1531